Find Beidou DW 59

NORAD ID: 61186 Int'l Des: 2024-168 Owner: CNSA Country: CN Constellation: BeiDou operational
MEOCIRCULAR

Live Position

Loading 3D Globe...

About Beidou DW 59

Description loading...

Upcoming Passes

Passes for default location (London). Set your location on the main map for personalized predictions.

Altitude History

Loading altitude history...

Two-Line Element Set

1 61186U 24168B 26111.28169656 -.00000039 00000-0 00000+0 0 9999
2 61186 54.5245 304.2187 0003331 318.9729 226.8734 1.86229787 10725
Epoch: Apr 21, 2026 • Age: 35 hours

Current Status

Altitude 21542.7 km
Velocity 3.78 km/s
Sub-Earth Point 54.13°N, 79.61°W
Launch Date Sep 19, 2024
Age 1.5 years
Type navigation

Launch Group

Unknown Vehicle • BeiDou Launch 47 • 2 satellites

Technical Details

Classification Payload
Mass 1014.00 kg
Dry Mass 850.00 kg
Total Mass 1014.00 kg
Length 2.20 m
Diameter 1.70 m
Span 10.00 m
Shape Box + 2 Pan
Manufacturer CAST
Bus Type BD-3M
Phase Status In Orbit
Owner/State CNSA/CN

Most Searched